Flag for Congo Dem.Rep. Weather past 2 weeks in Bukavu, Congo Dem.Rep.

Now
73 °F

Broken clouds.


Feels Like: 73 °F
Forecast: 57 / 71 °F
Wind: 3 mph from Southeast

Location: Kigali Airport

Current Time: Mar 31, 2015 at 10:46:53 AM

Latest Report: Mar 31, 2015 at 10:00 AM


Visibility: N/A

Pressure: 30.21 "Hg

Humidity: 83%

Dew point: 68 °F

Location of BukavuLocation

Historic Weather in Bukavu — Graph

°F

Bukavu temperature yesterday

Maximum temperature yesterday: 81 °F (at 3:00 PM)
Minimum temperature yesterday: 64 °F (at 12:30 AM)
Average temperature yesterday: 69 °F

Past Weeks' High & Low Weather Summary

 TemperatureHumidityPressure
High90 °F (Mar 16, 2:30 PM)100% (Mar 20, 4:00 AM)30.21 "Hg (Mar 20, 4:00 AM)
Low63 °F (Mar 24, 8:30 AM)22% (Mar 16, 4:00 PM)29.95 "Hg (Mar 18, 3:30 PM)
Average71 °F81%30.09 "Hg
* Reported Mar 16 9:00 AM — Mar 31 9:30 AM, Bukavu, Weather by CustomWeather, © 2015

Note: Actual official high and low records may vary slightly from our data, if they occured in-between our weather recording intervals... More about our weather records

Advertising

Bukavu weather history for previous 24 hours

 ConditionsComfort  
Time TempWeatherWind HumidityBarometerVisibility
9:30 AM
Tue, Mar 31
73 °FBroken clouds.No wind83%30.21 "HgN/A
9:00 AM72 °FBroken clouds.No wind83%30.21 "HgN/A
8:30 AM70 °FBroken clouds.No wind88%30.21 "HgN/A
8:00 AM68 °FBroken clouds.No wind100%30.21 "Hg5 mi
7:00 AM66 °FScattered clouds.No wind100%30.18 "Hg5 mi
6:30 AM66 °FScattered clouds.No wind100%30.15 "Hg4 mi
6:00 AM66 °FPassing clouds.No wind100%30.12 "Hg5 mi
5:30 AM66 °FPassing clouds.No wind100%30.12 "Hg5 mi
5:00 AM66 °FPassing clouds.No wind100%30.12 "Hg5 mi
4:30 AM66 °FPartly cloudy.No wind100%30.12 "HgN/A
4:00 AM66 °FPartly cloudy.No wind100%30.09 "HgN/A
3:30 AM66 °FPartly cloudy.No wind100%30.09 "HgN/A
3:00 AM66 °FPartly cloudy.No wind100%30.09 "HgN/A
2:30 AM66 °FPartly cloudy.No wind100%30.12 "HgN/A
1:30 AM66 °FPartly cloudy.No wind100%30.12 "HgN/A
1:00 AM68 °FPartly cloudy.No wind100%30.15 "HgN/A
12:30 AM66 °FPartly cloudy.No wind100%30.15 "HgN/A
11:00 PM
Mon, Mar 30
66 °FPartly cloudy.No wind100%30.15 "HgN/A
10:00 PM68 °FPartly cloudy.No wind94%30.15 "HgN/A
9:00 PM68 °FPartly cloudy.No wind94%30.15 "HgN/A
8:30 PM68 °FPassing clouds.No wind94%30.15 "HgN/A
8:00 PM68 °FPassing clouds.3 mph94%30.12 "HgN/A
7:30 PM68 °FPassing clouds.No wind94%30.12 "HgN/A
7:00 PM68 °FPassing clouds.3 mph88%30.09 "HgN/A
6:30 PM68 °FPassing clouds.No wind88%30.07 "HgN/A
6:00 PM70 °FScattered clouds.5 mph83%30.07 "HgN/A
5:30 PM70 °FPartly sunny.7 mph83%30.07 "HgN/A
5:00 PM72 °FThunderstorms. Partly sunny.7 mph78%30.07 "Hg5 mi
4:30 PM73 °FThunderstorms. Partly sunny.7 mph78%30.07 "Hg5 mi
4:00 PM77 °FPartly sunny.7 mph69%30.04 "HgN/A
3:30 PM77 °FPartly sunny.7 mph69%30.04 "HgN/A
3:00 PM81 °FPartly sunny.7 mph54%30.07 "HgN/A
2:00 PM79 °FPartly sunny.7 mph61%30.09 "HgN/A
1:30 PM79 °FScattered clouds.5 mph61%30.09 "HgN/A
1:00 PM77 °FScattered clouds.5 mph65%30.12 "HgN/A
12:30 PM73 °FBroken clouds.5 mph78%30.15 "HgN/A
12:00 PM72 °FBroken clouds.6 mph83%30.18 "HgN/A
11:30 AM72 °FBroken clouds.5 mph83%30.18 "HgN/A
11:00 AM72 °FBroken clouds.6 mph83%30.21 "HgN/A
10:30 AM72 °FPartly sunny.3 mph83%30.21 "HgN/A
10:00 AM72 °FBroken clouds.3 mph83%30.21 "HgN/A
Weather by CustomWeather, © 2015

See weather overviewHow to use our weather pages